Regional Weather Roundup
Issued by NWS Kansas City/Pleasant Hill, MO

Home | Current Version | Previous Version | Text Only | Print | Product List | Glossary On
Versions: 1 2 3 4 5 6 7 8 9 10 11 12 13 14 15 16 17 18 19 20 21 22 23 24 25 26 27 28 29 30 31 32 33 34 35 36 37 38 39 40 41 42 43 44 45 46 47 48 49 50
000
ASUS43 KEAX 310404
RWREAX

WEATHER ROUNDUP FOR EASTERN KANSAS AND NORTHWEST MISSOURI
NATIONAL WEATHER SERVICE KANSAS CITY/PLEASANT HILL MO
1100 PM CDT WED JUL 30 2014

KSZ040-057-103>105-MOZ028-029-037-043-310500-
...KANSAS CITY METROPOLITAN AREA...

CITY           SKY/WX    TMP DP  RH WIND       PRES   REMARKS
K.C. INTL      PTCLDY    66  57  72 N5        30.10R
K.C. DOWNTOWN  CLEAR     73  59  61 W3        30.09R
LEES SUMMIT    PTCLDY    65  61  87 SW5       30.10R
OLATHE - IXD   PTCLDY    68  61  78 W5        30.11R
OLATHE - OJC   PTCLDY    67  61  81 CALM      30.10R
LAWRENCE       PTCLDY    63  59  87 CALM      30.10R

$$

MOZ001>008-011>017-020>025-030>033-038>040-044>046-053-054-310500-
...NORTHERN AND CENTRAL MISSOURI...

CITY           SKY/WX    TMP DP  RH WIND       PRES   REMARKS
ST. JOSEPH     CLEAR     61  58  90 CALM      30.11R
MOSBY            N/A     63  63 100 CALM      30.09S
WHITEMAN AFB   PTCLDY    66  53  62 SW1       30.08S
CLINTON        PTCLDY    63  61  94 CALM      30.09S
SEDALIA        PTCLDY    67  59  75 CALM      30.09S
WARSAW         NOT AVBL
MARSHALL       PTCLDY    68  64  88 CALM      30.09S
CHILLICOTHE      N/A     64  59  83 CALM      30.10R
KIRKSVILLE     CLEAR     60  58  92 CALM      30.10S

$$

MOZ041-047>049-056>058-063>065-088>090-097-310500-
...EASTERN AND SOUTHERN MISSOURI...

CITY           SKY/WX    TMP DP  RH WIND       PRES   REMARKS
ST. LOUIS INTL MOCLDY    76  59  55 E3        30.07S
SPIRIT OF STL  MOCLDY    68  62  81 SW3       30.06R
COLUMBIA       MOCLDY    68  60  75 N3        30.09R
JEFFERSON CITY MOCLDY    70  60  70 CALM      30.07R
HANNIBAL       CLEAR     63  59  88 CALM      30.09R
ROLLA          MOCLDY    63  59  87 W3        30.08R
LEBANON        CLOUDY    64  61  88 CALM      30.10R
OSAGE BEACH    MOCLDY    63  59  88 CALM      30.08S
SPRINGFIELD    CLOUDY    67  64  90 SW3       30.09R
BRANSON        CLOUDY    64  64 100 CALM      30.10S
NEVADA         MOCLDY    66  64  94 CALM      30.11S
JOPLIN         CLOUDY    66  65  96 NE3       30.09S
WEST PLAINS    CLOUDY    66  64  93 CALM      30.10S FOG

$$

IAZ060-094-KSZ022-034>040-054-083-096-NEZ052-066-093-310500-
...KANSAS...SOUTHEAST NEBRASKA AND IOWA...

CITY           SKY/WX    TMP DP  RH WIND       PRES   REMARKS
TOPEKA         CLEAR     65  57  75 CALM      30.11R
MANHATTAN      CLEAR     62  58  86 CALM      30.12R
EMPORIA        CLEAR     62  61  96 NW3       30.12R
CHANUTE        PTCLDY    64  63  96 N3        30.11S FOG
WICHITA        PTCLDY    66  63  90 N6        30.13R
OMAHA          CLEAR     67  59  75 CALM      30.11S
LINCOLN        PTCLDY    67  55  65 CALM      30.12S
FALLS CITY     CLEAR     66  58  75 NW3       30.11R
LAMONI         CLEAR     65  56  72 N3        30.11R
DES MOINES     CLEAR     70  56  61 CALM      30.09S

$$




USA.gov is the U.S. government's official web portal to all federal, state and local government web resources and services.